EW9046 Weather Reports


time (UTC)temp
C
wind
direction
speed
KPH
gust
KPH
rain 1hr
cm
rain 24hr
cm
rain mn
cm
humidity
%
barometer
mb
20260507203107 15 224 8.0 20.9 0.00 0.13 0.03 79 1008.5
20260507201539 15 174 4.8 11.3 0.00 0.13 0.03 80 1008.4
20260507200041 14 167 1.6 11.3 0.00 0.13 0.03 81 1008.7
20260507194538 15 239 6.4 12.9 0.00 0.13 0.03 79 1009.0
20260507193039 15 213 8.0 16.1 0.00 0.13 0.03 79 1009.1
20260507191539 14 254 6.4 19.3 0.00 0.13 0.03 80 1009.4
20260507190034 14 210 3.2 11.3 0.00 0.13 0.03 81 1009.6
20260507184532 13 244 6.4 11.3 0.00 0.13 0.03 82 1009.7
20260507183030 13 229 3.2 11.3 0.00 0.13 0.03 81 1009.8
20260507181528 13 206 6.4 12.9 0.00 0.13 0.03 79 1009.9
20260507180034 13 172 1.6 8.0 0.00 0.13 0.03 83 1010.0
20260507174536 13 188 6.4 9.7 0.00 0.13 0.03 82 1010.1
20260507173048 13 207 3.2 12.9 0.00 0.13 0.03 84 1010.3
20260507171526 12 181 1.6 8.0 0.03 0.13 0.03 87 1010.4
20260507170024 12 228 4.8 11.3 0.03 0.13 0.03 85 1010.9
20260507164522 12 230 4.8 11.3 0.03 0.13 0.03 86 1010.8
20260507163025 11 163 1.6 4.8 0.03 0.13 0.03 83 1011.1
20260507161521 12 212 0.0 6.4 0.00 0.10 0.00 83 1011.4
20260507160019 11 127 0.0 1.6 0.00 0.10 0.00 86 1011.4
20260507154518 11 94 0.0 6.4 0.00 0.10 0.00 87 1011.7
20260507153017 10 73 1.6 4.8 0.00 0.10 0.00 85 1011.9
20260507151516 11 124 0.0 4.8 0.00 0.10 0.00 86 1012.1
20260507150023 10 22 0.0 1.6 0.00 0.10 0.00 86 1011.9
20260507144516 10 45 0.0 4.8 0.00 0.10 0.00 86 1011.9
20260507143015 10 63 1.6 6.4 0.00 0.10 0.00 84 1011.8
20260507141515 10 79 0.0 3.2 0.00 0.10 0.00 85 1012.2
20260507140014 10 82 1.6 6.4 0.00 0.10 0.00 84 1012.4
20260507134514 10 67 1.6 6.4 0.00 0.13 0.00 85 1012.4
20260507133018 10 82 0.0 4.8 0.00 0.13 0.00 85 1012.4
20260507131515 10 68 1.6 4.8 0.00 0.13 0.00 86 1012.4
20260507130012 10 89 1.6 3.2 0.00 0.13 0.00 86 1012.2
20260507124511 10 328 0.0 3.2 0.00 0.15 0.00 86 1012.5
20260507123013 10 70 3.2 6.4 0.00 0.15 0.00 85 1012.3
20260507121508 10 65 0.0 4.8 0.00 0.15 0.00 86 1012.2
20260507120006 10 67 0.0 3.2 0.00 0.15 0.00 86 1012.1
20260507114506 10 106 0.0 6.4 0.00 0.18 0.00 86 1011.9
20260507113010 10 77 0.0 3.2 0.00 0.18 0.00 88 1011.9
20260507111504 10 38 1.6 4.8 0.00 0.18 0.00 88 1011.7
20260507110002 10 2 0.0 4.8 0.00 0.18 0.00 89 1011.5
20260507104605 10 73 1.6 4.8 0.00 0.18 0.00 89 1011.4
20260507103100 10 51 1.6 6.4 0.00 0.18 0.00 89 1011.1
20260507101601 10 66 1.6 8.0 0.00 0.18 0.00 89 1011.1
20260507100057 11 86 1.6 6.4 0.00 0.18 0.00 90 1011.1
20260507094601 11 75 0.0 4.8 0.00 0.18 0.00 90 1011.0
20260507093055 11 66 1.6 8.0 0.00 0.18 0.00 90 1011.0
20260507091553 11 57 1.6 11.3 0.00 0.18 0.00 91 1010.7
20260507090050 11 230 1.6 8.0 0.00 0.18 0.00 92 1010.9
20260507084549 11 84 0.0 11.3 0.00 0.18 0.00 92 1010.8
20260507083047 11 92 0.0 4.8 0.00 0.18 0.00 92 1010.6
20260507081545 12 130 3.2 9.7 0.00 0.18 0.00 92 1010.3
20260507080044 12 78 1.6 8.0 0.00 0.18 0.00 92 1010.5
20260507074546 12 51 3.2 9.7 0.00 0.18 0.00 92 1010.3
20260507073043 13 53 1.6 8.0 0.00 0.18 0.00 92 1010.6
20260507071536 14 83 3.2 8.0 0.00 0.18 0.00 92 1010.3
20260507070042 15 213 0.0 1.6 0.00 0.18 0.00 91 1009.6
20260507064530 15 212 1.6 3.2 0.00 0.18 0.00 92 1009.8
20260507063028 15 221 0.0 1.6 0.00 0.18 0.00 91 1009.6
20260507061526 15 221 1.6 6.4 0.00 0.18 0.00 90 1009.9
20260507060026 15 179 3.2 6.4 0.00 0.18 0.00 88 1009.8
20260507054525 15 212 0.0 4.8 0.00 0.18 0.00 88 1010.2
20260507053024 16 229 3.2 17.7 0.00 0.18 0.00 87 1010.2
20260507051521 15 278 0.0 1.6 0.00 0.18 0.00 91 1010.3
20260507050027 15 108 0.0 4.8 0.00 0.18 0.00 92 1010.0
20260507044518 15 247 1.6 4.8 0.00 0.18 0.00 92 1009.4
20260507043017 15 253 1.6 14.5 0.10 0.18 0.00 91 1008.7
20260507041513 16 167 1.6 4.8 0.10 0.18 0.00 91 1009.3
20260507040009 16 277 3.2 8.0 0.10 0.18 0.00 91 1009.9
20260507034509 16 234 6.4 14.5 0.08 0.15 0.15 88 1009.5
20260507033010 17 262 6.4 14.5 0.00 0.08 0.08 87 1010.5
20260507031507 17 274 9.7 16.1 0.00 0.08 0.08 86 1010.2
20260507030007 17 293 6.4 12.9 0.00 0.08 0.08 87 1010.2
20260507024509 17 212 0.0 4.8 0.00 0.08 0.08 86 1009.5
20260507023006 17 243 3.2 11.3 0.00 0.08 0.08 85 1009.4
20260507021505 18 241 8.0 17.7 0.00 0.08 0.08 84 1009.1
20260507020008 18 1 1.6 8.0 0.00 0.08 0.08 84 1009.6
20260507014508 18 287 1.6 4.8 0.00 0.08 0.08 84 1009.0
20260507013004 18 245 6.4 14.5 0.00 0.08 0.08 84 1008.9
20260507011509 18 256 6.4 17.7 0.00 0.08 0.08 82 1008.8
20260507010004 19 228 11.3 19.3 0.00 0.08 0.08 80 1008.8
20260507004501 19 264 4.8 9.7 0.00 0.08 0.08 80 1009.1
20260507003001 19 274 4.8 11.3 0.00 0.08 0.08 80 1009.0
20260507001608 20 266 4.8 11.3 0.00 0.08 0.08 79 1008.9
20260507000100 20 236 8.0 16.1 0.00 0.08 0.08 79 1008.7
20260506234607 20 263 6.4 14.5 0.00 0.08 0.08 79 1008.5
20260506233100 20 271 9.7 20.9 0.00 0.08 0.08 77 1008.4
20260506231557 20 267 12.9 24.1 0.00 0.08 0.08 76 1008.3
20260506224600 21 269 16.1 27.4 0.00 0.08 0.08 74 1008.3
20260506223055 21 224 16.1 25.7 0.00 0.08 0.08 75 1008.1
20260506221555 21 276 12.9 24.1 0.00 0.08 0.08 75 1007.9
20260506220057 21 257 16.1 25.7 0.00 0.08 0.08 74 1007.9
20260506214553 21 261 17.7 30.6 0.00 0.08 0.08 74 1008.1
20260506213053 22 259 22.5 32.2 0.00 0.08 0.08 73 1007.9
20260506211552 21 285 16.1 25.7 0.00 0.08 0.08 72 1007.8
20260506210050 22 267 14.5 24.1 0.00 0.08 0.08 70 1007.7
20260506204550 23 234 16.1 22.5 0.00 0.08 0.08 70 1007.4